LZ3VG-2 Weather Reports


Display with metric or nautical units.
time (UTC)temp
F
wind
direction
speed
MPH
gust
MPH
rain 1hr
in
rain 24hr
in
rain mn
in
humidity
%
barometer
mb
20260506161525 57 133 10.0 14.0 0.00 0.00 0.00 81 1015.2
20260506160522 57 137 10.0 15.0 0.00 0.00 0.00 80 1015.3
20260506155518 57 136 10.0 16.0 0.00 0.00 0.00 80 1015.3
20260506154536 58 147 9.0 15.0 0.00 0.00 0.00 78 1015.1
20260506153553 58 165 10.0 16.0 0.00 0.00 0.00 75 1015.3
20260506152529 58 155 9.0 15.0 0.00 0.00 0.00 75 1015.4
20260506151526 58 144 9.0 16.0 0.00 0.00 0.00 75 1015.4
20260506150524 58 152 9.0 15.0 0.00 0.00 0.00 74 1015.4
20260506145520 59 150 9.0 16.0 0.00 0.00 0.00 73 1015.5
20260506144517 59 163 9.0 16.0 0.00 0.00 0.00 73 1015.5
20260506143535 59 158 8.0 15.0 0.00 0.00 0.00 73 1015.5
20260506142531 60 158 8.0 16.0 0.00 0.00 0.00 71 1015.5
20260506141528 60 143 11.0 17.0 0.00 0.00 0.00 70 1015.5
20260506140525 60 149 10.0 18.0 0.00 0.00 0.00 70 1015.5
20260506135522 60 164 9.0 16.0 0.00 0.00 0.00 68 1015.5
20260506134519 60 120 9.0 16.0 0.00 0.00 0.00 66 1015.3
20260506133516 61 138 10.0 20.0 0.00 0.00 0.00 63 1015.5
20260506132553 61 124 8.0 19.0 0.00 0.00 0.00 63 1015.4
20260506131530 61 127 10.0 29.0 0.00 0.00 0.00 60 1015.4
20260506130547 63 161 10.0 20.0 0.00 0.00 0.00 56 1015.5
20260506125524 62 121 9.0 15.0 0.00 0.00 0.00 55 1015.5
20260506124521 62 126 11.0 18.0 0.00 0.00 0.00 53 1015.6
20260506123518 62 119 9.0 16.0 0.00 0.00 0.00 49 1015.6
20260506122535 62 138 9.0 17.0 0.00 0.00 0.00 50 1015.8
20260506121552 62 133 10.0 20.0 0.00 0.00 0.00 52 1015.8
20260506120529 62 129 11.0 19.0 0.00 0.00 0.00 55 1015.9
20260506115526 61 122 9.0 21.0 0.00 0.00 0.00 57 1015.9
20260506114523 61 126 10.0 21.0 0.00 0.00 0.00 58 1016.0
20260506113540 61 123 10.0 19.0 0.00 0.00 0.00 58 1016.2
20260506112517 61 118 10.0 18.0 0.00 0.00 0.00 57 1016.2
20260506111533 61 124 11.0 25.0 0.00 0.00 0.00 56 1016.2
20260506110711 61 128 8.0 14.0 0.00 0.00 0.00 59 1016.2
20260506105528 61 125 9.0 16.0 0.00 0.00 0.00 58 1016.1
20260506104524 62 126 10.0 22.0 0.00 0.00 0.00 55 1016.2
20260506103541 62 142 9.0 18.0 0.00 0.00 0.00 52 1016.2
20260506102517 62 133 11.0 20.0 0.00 0.00 0.00 53 1016.3
20260506101535 61 123 9.0 18.0 0.00 0.00 0.00 55 1016.3
20260506100532 62 145 10.0 17.0 0.00 0.00 0.00 56 1016.3
20260506095529 62 150 9.0 16.0 0.00 0.00 0.00 54 1016.4
20260506094525 61 142 10.0 15.0 0.00 0.00 0.00 55 1016.4
20260506093522 61 147 11.0 18.0 0.00 0.00 0.00 55 1016.4
20260506092520 61 143 11.0 19.0 0.00 0.00 0.00 56 1016.3
20260506091516 60 147 13.0 21.0 0.00 0.00 0.00 56 1016.4
20260506090533 60 152 10.0 17.0 0.00 0.00 0.00 59 1016.4
20260506085551 60 152 9.0 18.0 0.00 0.00 0.00 61 1016.4
20260506084527 59 140 9.0 17.0 0.00 0.00 0.00 64 1016.4
20260506083524 58 136 9.0 20.0 0.00 0.00 0.00 68 1016.3
20260506082521 57 130 9.0 17.0 0.00 0.00 0.00 70 1016.2
20260506081519 57 146 8.0 16.0 0.00 0.00 0.00 74 1016.2
20260506080535 57 149 9.0 16.0 0.00 0.00 0.00 76 1016.1
20260506073526 54 131 9.0 17.0 0.00 0.00 0.00 81 1016.1
20260506072523 55 138 8.0 16.0 0.00 0.00 0.00 78 1016.2
20260506071521 56 150 8.0 20.0 0.00 0.00 0.00 73 1015.9
20260506070518 60 159 8.0 16.0 0.00 0.00 0.00 62 1015.8
20260506062051 58 188 10.0 12.0 0.00 0.00 0.00 66 1015.8
20260506061048 55 190 12.0 13.0 0.00 0.00 0.00 69 1015.9
20260506060205 57 184 10.0 12.0 0.00 0.00 0.00 69 1015.8
20260506051030 49 189 11.0 14.0 0.00 0.00 0.00 81 1015.8
20260506045024 47 189 11.0 13.0 0.00 0.00 0.00 82 1015.8
20260506044022 46 194 13.0 16.0 0.00 0.00 0.00 84 1015.7
20260506043019 45 192 13.0 15.0 0.00 0.00 0.00 85 1015.6
20260506042056 44 190 13.0 19.0 0.00 0.00 0.00 85 1015.6
20260506041033 44 198 13.0 17.0 0.00 0.00 0.00 86 1015.5
20260506040030 43 196 13.0 18.0 0.00 0.00 0.00 87 1015.4
20260506035027 43 194 14.0 17.0 0.00 0.00 0.00 89 1015.2
20260506034024 43 194 12.0 14.0 0.00 0.00 0.00 90 1015.3
20260506033021 42 190 12.0 16.0 0.00 0.00 0.00 91 1015.2
20260506032018 42 191 12.0 16.0 0.00 0.00 0.00 92 1015.1
20260506031035 42 191 13.0 15.0 0.00 0.00 0.00 93 1014.9
20260506030032 42 191 11.0 14.0 0.00 0.00 0.00 92 1014.9
20260506025029 42 189 12.0 15.0 0.00 0.00 0.00 93 1014.9
20260506024026 42 192 13.0 16.0 0.00 0.00 0.00 94 1015.0
20260506023023 42 192 12.0 16.0 0.00 0.00 0.00 94 1014.9
20260506022020 42 190 13.0 15.0 0.00 0.00 0.00 94 1014.9
20260506021017 42 188 13.0 16.0 0.00 0.00 0.00 93 1014.9
20260506020035 43 190 11.0 15.0 0.00 0.00 0.00 93 1015.0
20260506015032 44 188 14.0 19.0 0.00 0.00 0.00 93 1014.8
20260506014029 44 190 13.0 15.0 0.00 0.00 0.00 92 1014.8
20260506013026 44 191 13.0 15.0 0.00 0.00 0.00 93 1014.9
20260506012023 45 189 12.0 14.0 0.00 0.00 0.00 93 1015.1
20260506011019 45 188 12.0 16.0 0.00 0.00 0.00 93 1015.1
20260506010017 46 182 12.0 14.0 0.00 0.00 0.00 94 1015.2
20260506005034 45 182 12.0 14.0 0.00 0.00 0.00 94 1015.0
20260506004111 45 182 10.0 11.0 0.00 0.00 0.00 94 1015.1
20260506003028 45 188 11.0 12.0 0.00 0.00 0.00 94 1015.1
20260506002025 46 190 12.0 14.0 0.00 0.00 0.00 93 1015.2
20260506001022 46 183 11.0 11.0 0.00 0.00 0.00 91 1015.0
20260506000019 47 187 11.0 13.0 0.00 0.00 0.00 91 1015.0
20260505235016 46 185 10.0 12.0 0.00 0.00 0.00 92 1015.1
20260505234033 46 182 10.0 13.0 0.00 0.00 0.00 91 1015.4
20260505233030 47 191 12.0 14.0 0.00 0.00 0.00 92 1015.3
20260505232028 47 193 12.0 14.0 0.00 0.00 0.00 91 1015.5
20260505231024 47 192 12.0 15.0 0.00 0.00 0.00 90 1015.6
20260505230022 47 187 12.0 13.0 0.00 0.00 0.00 87 1015.6
20260505225059 48 192 11.0 13.0 0.00 0.00 0.00 88 1015.6
20260505224016 50 193 12.0 13.0 0.00 0.00 0.00 91 1015.8
20260505223033 51 182 10.0 11.0 0.00 0.00 0.00 93 1015.8
20260505222050 52 173 10.0 11.0 0.00 0.00 0.00 92 1015.8
20260505221027 52 173 10.0 12.0 0.00 0.00 0.00 92 1015.9
20260505220044 52 171 9.0 11.0 0.00 0.00 0.00 91 1016.0
20260505215021 53 173 8.0 10.0 0.00 0.00 0.00 90 1015.9
20260505214018 53 172 9.0 11.0 0.00 0.00 0.00 88 1016.0
20260505213035 53 172 8.0 10.0 0.00 0.00 0.00 85 1015.9
20260505212032 53 177 8.0 10.0 0.00 0.00 0.00 85 1015.9
20260505211049 53 178 7.0 9.0 0.00 0.00 0.00 86 1015.9
20260505210026 53 182 6.0 9.0 0.00 0.00 0.00 84 1015.8
20260505205022 53 179 6.0 9.0 0.00 0.00 0.00 79 1016.0
20260505204019 54 183 6.0 9.0 0.00 0.00 0.00 77 1015.9
20260505203016 53 174 9.0 11.0 0.00 0.00 0.00 68 1015.9
20260505202033 53 181 10.0 11.0 0.00 0.00 0.00 69 1015.8
20260505201030 53 180 11.0 12.0 0.00 0.00 0.00 73 1015.9
20260505200028 53 177 10.0 11.0 0.00 0.00 0.00 84 1015.8
20260505195025 54 163 11.0 14.0 0.00 0.00 0.00 84 1015.9
20260505194021 54 160 9.0 13.0 0.00 0.00 0.00 83 1015.8
20260505193018 54 163 9.0 13.0 0.00 0.00 0.00 84 1015.7
20260505192035 54 161 9.0 14.0 0.00 0.00 0.00 84 1015.6
20260505191032 55 158 9.0 15.0 0.00 0.00 0.00 82 1015.3
20260505190109 55 142 9.0 14.0 0.00 0.00 0.00 79 1015.3
20260505185026 55 153 9.0 13.0 0.00 0.00 0.00 77 1015.4
20260505184103 55 157 9.0 13.0 0.00 0.00 0.00 77 1015.3
20260505183020 55 158 9.0 13.0 0.00 0.00 0.00 77 1015.3
20260505182017 55 154 10.0 14.0 0.00 0.00 0.00 77 1015.2
20260505181054 56 161 9.0 12.0 0.00 0.00 0.00 72 1015.3
20260505180031 56 163 9.0 13.0 0.00 0.00 0.00 70 1015.1
20260505175028 57 167 9.0 11.0 0.00 0.00 0.00 68 1015.2
20260505174535 57 161 8.0 11.0 0.00 0.00 0.00 67 1015.0
20260505173531 58 163 9.0 12.0 0.00 0.00 0.00 63 1014.9
20260505172528 58 165 8.0 11.0 0.00 0.00 0.00 60 1014.8
20260505171546 59 161 9.0 12.0 0.00 0.00 0.00 57 1014.8
20260505170523 59 161 8.0 11.0 0.00 0.00 0.00 56 1014.8
20260505165519 60 159 8.0 12.0 0.00 0.00 0.00 54 1014.8
20260505164517 61 159 9.0 13.0 0.00 0.00 0.00 52 1014.8
20260505163534 62 162 9.0 13.0 0.00 0.00 0.00 49 1014.7
20260505162530 62 163 9.0 15.0 0.00 0.00 0.00 47 1014.8